TimeEDT,TemperatureF,Dew PointF,Humidity,Sea Level PressureIn,VisibilityMPH,Wind Direction,Wind SpeedMPH,Gust SpeedMPH,PrecipitationIn,Events,Conditions,WindDirDegrees,DateUTC
12:56 AM,59.0,44.1,58,30.09,10.0,North,9.2,-,N/A,,Clear,360,2013-09-09 04:56:00
1:56 AM,57.9,44.1,60,30.09,10.0,North,5.8,-,N/A,,Clear,360,2013-09-09 05:56:00
2:56 AM,55.0,45.0,69,30.10,10.0,Calm,Calm,-,N/A,,Mostly Cloudy,0,2013-09-09 06:56:00
3:56 AM,52.0,45.0,77,30.12,10.0,Calm,Calm,-,N/A,,Mostly Cloudy,0,2013-09-09 07:56:00
4:56 AM,48.9,44.1,83,30.14,10.0,Calm,Calm,-,N/A,,Scattered Clouds,0,2013-09-09 08:56:00
5:56 AM,46.0,43.0,89,30.17,10.0,Calm,Calm,-,N/A,,Clear,0,2013-09-09 09:56:00
6:56 AM,46.9,44.1,90,30.19,10.0,Calm,Calm,-,N/A,,Clear,0,2013-09-09 10:56:00
7:56 AM,57.0,46.9,69,30.21,10.0,Calm,Calm,-,N/A,,Clear,0,2013-09-09 11:56:00
8:56 AM,62.1,41.0,46,30.22,10.0,East,4.6,-,N/A,,Clear,80,2013-09-09 12:56:00
9:56 AM,64.0,39.9,41,30.23,10.0,Variable,3.5,-,N/A,,Clear,0,2013-09-09 13:56:00
10:56 AM,64.0,41.0,43,30.23,10.0,Calm,Calm,-,N/A,,Clear,0,2013-09-09 14:56:00
11:56 AM,64.9,43.0,45,30.22,10.0,South,5.8,-,N/A,,Clear,190,2013-09-09 15:56:00
12:56 PM,66.0,44.1,45,30.21,10.0,Variable,6.9,-,N/A,,Clear,0,2013-09-09 16:56:00
1:56 PM,66.0,43.0,43,30.20,10.0,SW,10.4,-,N/A,,Clear,220,2013-09-09 17:56:00
2:56 PM,64.9,44.1,47,30.19,10.0,SSW,10.4,-,N/A,,Clear,200,2013-09-09 18:56:00
3:56 PM,64.0,46.9,54,30.20,10.0,SSW,10.4,19.6,N/A,,Clear,200,2013-09-09 19:56:00
4:56 PM,64.0,46.9,54,30.20,10.0,SSW,10.4,-,N/A,,Clear,210,2013-09-09 20:56:00
5:56 PM,63.0,48.0,58,30.19,10.0,SSW,9.2,-,N/A,,Clear,210,2013-09-09 21:56:00
6:56 PM,62.1,50.0,65,30.18,10.0,SW,11.5,-,N/A,,Clear,220,2013-09-09 22:56:00
7:56 PM,62.1,51.1,67,30.19,10.0,SSW,11.5,-,N/A,,Clear,210,2013-09-09 23:56:00
8:56 PM,62.1,52.0,70,30.19,10.0,SSW,9.2,-,N/A,,Clear,210,2013-09-10 00:56:00
9:56 PM,63.0,52.0,67,30.19,10.0,SSW,9.2,17.3,N/A,,Clear,210,2013-09-10 01:56:00
10:56 PM,63.0,53.1,70,30.19,10.0,SW,10.4,-,N/A,,Clear,220,2013-09-10 02:56:00
11:56 PM,64.0,52.0,65,30.19,10.0,SW,10.4,-,N/A,,Clear,220,2013-09-10 03:56:00